Location: Newark
(47.5008°N, 9.7480°E)
Time: 16:28:52
(UTC+00:00)

Starlink (trailer) - Visible Passes

Search period start: 17 July 2019 00:00
Search period end: 27 July 2019 00:00
Orbit: 548 x 551 km, 53.0° (Epoch: 16 July)

Date Brightness Start Highest point End Pass type
(mag) Time Alt. Az. Time Alt. Az. Time Alt. Az.
17 Jul 5.1 01:06:24 22° SSE 01:07:00 23° SE 01:10:17 10° E visible
17 Jul 3.7 02:42:04 10° WSW 02:46:13 84° NNW 02:50:23 10° ENE visible
18 Jul 4.7 01:01:01 28° SSE 01:01:29 29° SE 01:05:06 10° ENE visible
18 Jul 3.8 02:36:42 10° WSW 02:40:50 70° NNW 02:44:59 10° ENE visible
19 Jul 4.3 00:55:34 36° SSE 00:55:59 37° SE 00:59:50 10° ENE visible
19 Jul 4.1 02:31:22 10° WSW 02:35:28 59° NNW 02:39:36 10° ENE visible
20 Jul 3.9 00:50:05 46° SSE 00:50:31 48° SE 00:54:32 10° ENE visible
20 Jul 4.3 02:26:04 10° W 02:30:08 52° NNW 02:34:12 10° ENE visible
21 Jul 3.6 00:44:33 56° S 00:45:03 62° SSE 00:49:10 10° ENE visible
21 Jul 4.5 02:20:47 10° W 02:24:47 46° NNW 02:28:49 10° ENE visible
22 Jul 3.5 00:38:58 60° SW 00:39:38 78° SSE 00:43:47 10° ENE visible
22 Jul 4.7 02:15:30 10° W 02:19:28 42° N 02:23:26 10° ENE visible
22 Jul 6.0 22:57:43 12° E 22:57:43 12° E 22:58:14 10° E visible
23 Jul 3.5 00:33:21 55° WSW 00:34:13 86° NNW 00:38:23 10° ENE visible
23 Jul 4.9 02:10:13 10° WNW 02:14:09 39° N 02:18:05 10° ENE visible
23 Jul 5.8 22:52:02 16° E 22:52:02 16° E 22:53:03 10° ENE visible
24 Jul 3.7 00:27:39 45° W 00:28:49 72° NNW 00:32:59 10° ENE visible
24 Jul 5.0 02:04:56 10° WNW 02:08:50 38° N 02:12:44 10° ENE visible
24 Jul 5.5 22:46:17 20° E 22:46:17 20° E 22:47:48 10° ENE visible
25 Jul 4.0 00:21:54 35° W 00:23:26 61° NNW 00:27:34 10° ENE visible
25 Jul 5.1 01:59:38 10° WNW 02:03:31 37° N 02:07:25 10° ENE visible
25 Jul 5.1 22:40:26 26° E 22:40:26 26° E 22:42:28 10° ENE visible
26 Jul 4.3 00:16:02 27° W 00:18:04 53° NNW 00:22:09 10° ENE visible
26 Jul 5.1 01:54:19 10° WNW 01:58:12 38° N 02:02:06 10° ENE visible
26 Jul 4.5 22:34:25 37° E 22:34:25 37° E 22:37:06 10° ENE visible
